Tracking 29892 objects as of 21-Nov-2024
HD Live streaming from Space Station
objects crossing your sky now

NOAA 16 DEB

Track NOAA 16 DEB now!
10-day predictions


NORAD ID: 41254
Int'l Code: 2000-055FE
Perigee: 651.5 km
Apogee: 686.3 km
Inclination: 99.0 °
Period: 98.0 minutes
Semi major axis: 7039 km
RCS: Unknown
Launch date: September 21, 2000
Source: United States (US)
Launch site: AIR FORCE WESTERN TEST RANGE (AFWTR)

Note: This is SATELLITE DEBRIS
Your satellite tracking list
Your tracking list is empty




NASA's NSSDC Master Catalog

Two Line Element Set (TLE):
1 41254U 00055FE  24325.11117453  .00084335  00000-0  13909-1 0  9991
2 41254  99.0399 195.8805 0024709  35.5130 324.7711 14.69773253462387
Source of the keplerian elements: AFSPC